Change the Weather History Date:

Tuesday, March 25, 2014

  Actual Average Record
Temperature  
Mean Temperature 52 °F 46 °F  
Max Temperature 57 °F 54 °F 62 °F (1960)
Min Temperature 46 °F 38 °F 16 °F (1996)
Degree Days  
Heating Degree Days 13 19  
Month to date heating degree days 499 529  
Cooling Degree Days 0 0  
Month to date cooling degree days 0 0  
Year to date cooling degree days 0 0  
Moisture  
Dew Point 41 °F    
Average Humidity 72    
Maximum Humidity 82    
Minimum Humidity 61    
Precipitation  
Precipitation 0.16 in 0.11 in 1.15 in (2015)
Month to date precipitation 4.70 2.57  
Year to date precipitation 10.28 10.26  
Sea Level Pressure  
Sea Level Pressure 29.62 in    
Wind  
Wind Speed 12 mph (SE)    
Max Wind Speed 28 mph    
Max Gust Speed 40 mph    
Visibility 10 miles    
Events Rain    
T = Trace of Precipitation, MM = Missing Value Source: NWS Daily Summary

Daily Weather History Graph

Daily Weather History Graph

Search for Another Location

Airport or City:

Trip Planner

Search our weather history database for the weather conditions in past years. The results will help you decide how hot, cold, wet, or windy it might be!

Date:

Astronomy

Mar. 25, 2014 Rise Set
Actual Time 7:02 AM PDT 7:30 PM PDT
Civil Twilight 6:30 AM PDT 8:02 PM PDT
Nautical Twilight 5:53 AM PDT 8:40 PM PDT
Astronomical Twilight 5:14 AM PDT 9:19 PM PDT
Moon 3:53 AM PDT (3/25) 1:43 PM PDT (3/25)
Length of Visible Light 13h 31m
Length of Day
12h 28m
Waning Crescent, 31% of the Moon is Illuminated
Mar 25
Waning Crescent
Mar 30
New
Apr 7
First Quarter
Apr 15
Full
Apr 22
Last Quarter

Hourly Weather History & Observations

Time (PDT) Temp. Windchill Dew Point Humidity Pressure Visibility Wind Dir Wind Speed Gust Speed Precip Events Conditions
12:53 AM 46.9 °F - 41.0 °F 80% 29.87 in 10.0 mi North 5.8 mph - 0.00 in   Overcast
1:53 AM 48.0 °F - 39.0 °F 71% 29.86 in 10.0 mi Calm Calm - N/A   Overcast
2:53 AM 46.9 °F - 39.9 °F 77% 29.84 in 10.0 mi NE 5.8 mph - 0.00 in   Overcast
3:53 AM 52.0 °F - 39.9 °F 63% 29.78 in 10.0 mi East 9.2 mph 17.3 mph 0.01 in Rain Light Rain
4:53 AM 55.9 °F - 37.9 °F 51% 29.74 in 10.0 mi Variable 3.5 mph - 0.00 in   Overcast
5:53 AM 48.9 °F - 39.9 °F 71% 29.73 in 10.0 mi North 6.9 mph - N/A   Overcast
6:53 AM 46.9 °F - 39.9 °F 77% 29.72 in 10.0 mi Calm Calm - 0.00 in Rain Light Rain
7:53 AM 52.0 °F - 39.9 °F 63% 29.71 in 10.0 mi SE 10.4 mph - 0.00 in Rain Light Rain
8:53 AM 46.9 °F - 41.0 °F 80% 29.70 in 10.0 mi Variable 4.6 mph - 0.02 in Rain Light Rain
9:53 AM 50.0 °F - 43.0 °F 77% 29.67 in 10.0 mi ESE 10.4 mph - 0.02 in Rain Light Rain
10:53 AM 51.1 °F - 43.0 °F 74% 29.63 in 10.0 mi SE 10.4 mph - 0.00 in Rain Light Rain
11:53 AM 53.1 °F - 43.0 °F 69% 29.60 in 10.0 mi ESE 6.9 mph - 0.00 in   Overcast
12:53 PM 54.0 °F - 43.0 °F 66% 29.56 in 10.0 mi SE 13.8 mph 23.0 mph 0.00 in Rain Light Rain
1:53 PM 54.0 °F - 42.1 °F 64% 29.54 in 10.0 mi SSE 21.9 mph 33.4 mph 0.00 in Rain Light Rain
2:53 PM 53.1 °F - 42.1 °F 66% 29.54 in 10.0 mi SE 16.1 mph 31.1 mph 0.00 in   Mostly Cloudy
3:53 PM 55.0 °F - 43.0 °F 64% 29.53 in 10.0 mi SSE 19.6 mph 27.6 mph N/A   Overcast
4:53 PM 55.9 °F - 42.1 °F 60% 29.51 in 10.0 mi SSE 17.3 mph 25.3 mph 0.00 in   Mostly Cloudy
5:53 PM 55.0 °F - 43.0 °F 64% 29.49 in 10.0 mi SSE 15.0 mph 24.2 mph N/A   Mostly Cloudy
6:53 PM 53.1 °F - 43.0 °F 69% 29.48 in 10.0 mi SSE 17.3 mph 28.8 mph 0.00 in   Overcast
7:53 PM 51.1 °F - 44.1 °F 77% 29.47 in 10.0 mi SSE 19.6 mph 33.4 mph 0.01 in Rain Light Rain
8:53 PM 51.1 °F - 43.0 °F 74% 29.49 in 10.0 mi SSE 21.9 mph 32.2 mph 0.00 in Rain Light Rain
9:53 PM 50.0 °F - 41.0 °F 71% 29.51 in 10.0 mi SSE 20.7 mph 33.4 mph 0.00 in   Overcast
10:46 PM 48.2 °F - 42.8 °F 82% 29.52 in 10.0 mi SSE 19.6 mph 34.5 mph 0.05 in Rain Light Rain
10:53 PM 48.0 °F - 42.1 °F 80% 29.55 in 10.0 mi SSE 26.5 mph 36.8 mph 0.05 in Rain Light Rain
11:08 PM 46.4 °F 39.0 °F 42.8 °F 87% 29.55 in 4.0 mi SSE 19.6 mph 33.4 mph 0.05 in Rain Rain
11:21 PM 48.2 °F - 39.2 °F 71% 29.56 in 10.0 mi South 12.7 mph 24.2 mph 0.05 in Rain Light Rain
11:53 PM 46.9 °F - 37.9 °F 71% 29.58 in 10.0 mi South 10.4 mph 20.7 mph 0.05 in   Overcast